{"data":{"norad_id":68247,"intl_designator":"2026-054R","name":"STARLINK-37044","alt_names":[],"object_type":"PAYLOAD","status":"ACTIVE","operator":null,"country":"US","launch_date":"2026-03-17","launch_site_code":"AFETR","launch_vehicle":null,"mission":null,"orbit_class":"UNKNOWN","rcs_meters":null,"size_class":null,"mass_kg":null,"dimensions":null,"purposes":["comms"],"wikipedia_slug":null,"has_3d_model":false,"image_url":null,"decayed_at":null,"tle_current":{"epoch":"2026-05-25T03:42:16.596864Z","epoch_age_seconds":55568,"freshness":"FRESH","line1":"1 68247U 26054R   26145.15435876  .00054866  00000+0  98596-3 0  9999","line2":"2 68247  53.1586 297.8260 0000889 114.1122 245.9980 15.49357185 10756","mean_motion":15.49357185,"eccentricity":8.89e-5,"inclination_deg":53.1586,"raan_deg":297.826,"arg_perigee_deg":114.1122,"mean_anomaly_deg":245.998,"bstar":0.00098596,"rev_number":1075,"period_min":92.941770557575,"perigee_km":418.00112913676,"apogee_km":419.20958992828,"semimajor_km":6796.7423595325,"source":"CELESTRAK","updated_at":"2026-05-25T13:38:21.886228Z"}}}